#timestamp,LO_Frequency,Hit 
1502845215.5,286046998.4,N
1502845235.3,286046999.3,N
1502845255.2,286046998.9,N
1502845275.9,286046999.5,N
1502845295.7,286046999.1,N
1502845315.6,286046999.4,N
1502845335.4,286046996.8,N
1502845355.2,286046997.8,N
1502845375.1,286046996.6,N
1502845376.0,286046996.6,N
1502845395.8,286046996.5,N
1502845415.7,286046996.9,N
1502845435.5,286046996.8,N
1502845455.3,286046996.6,N
1502845475.2,286046999.0,N
1502845495.0,286046999.6,N
1502845495.9,286046999.6,N
1502845515.8,286046996.6,N
1502845535.6,286046999.5,N
1502845555.4,286046999.2,N
1502845575.3,286046999.4,N
1502845595.1,286046998.7,N
1502845615.8,286047000.0,N
1502845635.7,286047000.2,N
1502845655.5,286046999.8,N
1502845675.4,286046999.8,N
1502845695.2,286047000.2,N
1502845715.0,286047002.8,N
1502845715.9,286047002.8,N
1502845735.8,286047000.2,N
1502845755.6,286047002.0,N
1502845775.5,286047004.4,N
1502845795.3,286047001.3,N
1502845815.1,286047002.0,N
1502845835.9,286047001.3,N
1502845855.7,286047002.4,N
1502845875.5,286047003.9,N
1502845895.4,286047001.5,N
1502845915.2,286047001.5,N
1502845935.1,286047001.8,N
1502845936.0,286047001.8,N
1502845955.8,286047003.9,N
1502845975.6,286047004.3,N
1502845995.5,286047003.8,N
1502846015.3,286047003.5,N
1502846035.1,286047003.1,N
1502846055.9,286047003.5,N
1502846075.7,286047005.9,P
1502846095.6,286047004.1,N
1502846115.4,286047004.4,N
1502846135.2,286047001.4,N
1502846155.1,286047004.0,N
1502846156.0,286047004.0,N
1502846175.8,286047004.3,N
1502846195.7,286047003.9,N
1502846215.5,286047003.4,N
1502846235.3,286047003.5,N
1502846255.2,286047003.1,N
1502846275.0,286047005.2,P
1502846275.9,286047005.2,P
1502846295.8,286047002.0,N
1502846315.6,286047002.5,N
1502846335.4,286047002.4,N
1502846355.3,286047002.0,N
1502846375.1,286046999.9,N
1502846395.8,286047002.1,N
1502846415.7,286047001.6,N
1502846435.5,286047002.1,N
1502846455.4,286047001.3,N
1502846475.2,286047002.2,N
1502846495.0,286047002.1,N
1502846495.9,286047002.1,N
1502846515.8,286047002.1,N
1502846535.6,286047001.7,N
1502846555.4,286047002.0,N
1502846575.3,286047002.0,N
1502846595.1,286047004.0,P
1502846615.9,286047002.3,N
1502846635.7,286047000.2,N
1502846655.5,286046999.9,N
1502846675.4,286047000.0,N
1502846695.2,286047000.6,N
1502846715.1,286047000.2,N
1502846716.0,286047000.2,N
1502846735.8,286046999.8,N
1502846755.6,286047002.8,N
1502846775.5,286047002.3,N
1502846795.3,286047002.2,N
1502846815.1,286047001.9,N
1502846835.9,286047001.9,N
1502846855.7,286047002.8,N
1502846875.6,286046999.9,N
1502846895.4,286047001.6,N
1502846915.2,286047001.3,N
1502846935.1,286047002.3,N
1502846936.0,286047002.3,N
1502846955.8,286046999.9,N
1502846975.6,286047002.3,N
1502846995.5,286046999.7,N
1502847015.3,286047002.3,N
1502847035.2,286047004.3,P
1502847055.0,286047000.2,N
1502847055.9,286047000.2,N
1502847105.8,286047000.3,E
1502847115.7,286047001.0,N
1502847135.5,286047000.3,P
1502847155.4,286047000.4,N
1502847175.2,286047000.2,N
1502847195.0,286047000.1,N
1502847195.9,286047000.1,N
1502847215.8,286047000.2,N
1502847235.6,286047002.4,P
1502847255.5,286046999.7,N
1502847275.3,286047000.1,N
1502847295.1,286047002.8,N
1502847315.9,286047002.3,N
1502847335.7,286047002.2,N
1502847355.6,286047002.5,N
1502847375.4,286047002.1,N
1502847395.2,286047002.2,N
1502847415.1,286047002.1,N
1502847416.0,286047002.1,N
1502847435.8,286047002.6,N
1502847455.6,286047002.2,N
1502847475.5,286047002.3,N
1502847495.3,286047001.9,N
1502847515.2,286047002.1,N
1502847535.9,286047002.7,P
1502847555.7,286047000.4,N
1502847575.6,286047001.0,N
1502847595.4,286047000.2,N
1502847615.3,286047000.1,N
1502847635.1,286047000.1,N
1502847636.0,286047000.1,N
1502847655.8,286047001.6,N
1502847675.7,286047002.2,N
1502847695.5,286047001.6,N
1502847715.3,286047002.1,N
1502847735.2,286047001.8,N
1502847755.0,286047002.1,N
1502847755.9,286047002.1,N
1502847775.8,286047001.6,N
1502847795.6,286047001.6,N
1502847815.4,286047001.7,N
1502847835.3,286047001.5,N
1502847855.1,286047002.5,P
1502847875.9,286047000.3,N
1502847895.7,286047000.5,N
1502847915.5,286047000.5,N
1502847935.4,286046999.9,N
1502847955.2,286047002.8,P
1502847975.1,286047002.4,N
1502847976.0,286047002.4,N
1502847995.8,286046999.9,N
1502848015.6,286047000.1,N
1502848035.5,286046999.9,N
1502848055.3,286047000.0,N
1502848075.1,286046999.8,N
1502848095.9,286047002.7,N
1502848115.7,286047000.1,N
1502848135.6,286047002.4,N
1502848155.4,286047002.5,N
1502848175.2,286047002.4,N
1502848195.1,286047002.7,N
1502848196.0,286047002.7,N
1502848215.8,286047000.0,N
1502848235.7,286047002.8,N
1502848255.5,286047002.1,N
1502848275.3,286047001.4,N
1502848295.2,286047001.7,N
1502848315.9,286047001.7,N
1502848335.7,286047001.9,N
1502848355.6,286047004.3,P
1502848375.4,286047000.1,N
1502848395.3,286047002.2,N
1502848415.1,286047001.7,N
1502848416.0,286047001.7,N
1502848435.8,286047001.5,N
1502848455.7,286047001.3,N
1502848475.5,286047001.5,N
1502848495.3,286047001.5,N
1502848515.2,286047004.2,P
1502848535.0,286047002.8,N
1502848535.9,286047002.8,N
1502848555.8,286047002.3,N
1502848575.6,286047002.2,N
1502848595.4,286047000.1,N
1502848615.3,286047002.8,N
1502848635.1,286047002.3,N
1502848636.0,286047002.3,N
1502848655.8,286047002.3,N
1502848675.7,286047001.9,N
1502848695.5,286047002.1,N
1502848715.3,286047001.7,N
1502848735.2,286047004.3,P
1502848755.0,286047000.4,N
1502848755.9,286047000.4,N
1502848775.8,286047000.5,N
1502848795.6,286047000.9,N
